Middletown, CT (06457)

4:41 AM EST on February 06, 2016 (GMT -0500)
Middletown Framing | | Change Station
CLOSE
Current Station
Personal Weather Station
Location: Middletown, CT
Elevation: 56 ft
Nearby Weather Stations
Active Advisory: Special Statement Active Notice: Record Report

Elev 56 ft 41.56 °N, 72.65 °W | Updated 4 minutes ago

Mostly Cloudy
Mostly Cloudy
21.4 °F
Feels Like 21 °F
N
0.0
Wind Variable Wind from North
Gusts 0.0 mph

Today
High -- | Low -- °F
--% Chance of Precip.
Yesterday
High -- | Low -- °F
Precip. -- in
Pressure 30.35 in
Visibility 1.8 miles
Clouds Clear
Windchill 21 °F
Dew Point 14 °F
Humidity 74%
Rainfall 0.00 in
Snow Depth Not available.
6:57 AM 5:12 PM
Waning Crescent, 6% visible
SPECI KMMK 060934Z AUTO 00000KT 1 3/4SM HZ CLR M09/M12 A3035 RMK AO2 VIS 1/2V5 I1000 T10941122 TSNO
Pressure 30.35 in
Visibility 1.8 miles
Clouds Clear
Windchill 21 °F
Dew Point 14 °F
Humidity 74%
Rainfall 0.00 in
Snow Depth Not available.
6:57 AM 5:12 PM
Waning Crescent, 6% visible
SPECI KMMK 060934Z AUTO 00000KT 1 3/4SM HZ CLR M09/M12 A3035 RMK AO2 VIS 1/2V5 I1000 T10941122 TSNO

10-Day Weather Forecast

Almanac

Astronomy

Feb. 06, 2016 Rise Set
Actual Time
Civil Twilight
Nautical Twilight
Astronomical Twilight
Moon
Length of Visible Light
Length of Day
Tomorrow will be .
, % of the Moon is Illuminated

Today's Extremes

State Highs State Lows

Community

WunderPhotos

Upload Photos

1,890,933 photos uploaded!

WunderBlog® & News

Nearby

Air Quality

  Air Quality AQ Index Pollutant
Not available.

Snow Depth

Station Depth Elevation

Earthquake Activity

City Distance Mag. Time & Date
Minimum magnitude displayed is 2.5.

Coastal Water Temperatures

Place Temperature

Stations

Nearby Weather Stations

Station Location Temp. Windchill Dew Point Humidity Wind Precip. Elev Updated Type
                   

Watches & Warnings

Special Statement
Issued: 9:24 PM EST Feb. 5, 2016 – National Weather Service

Standing water from melted snow will refreeze tonight. Icy spots
are anticipated... especially on untreated surfaces. Use extra
caution when out driving or walking tonight into Saturday morning.



924 PM EST Fri Feb 5 2016

Standing water from melted snow will refreeze tonight. Icy spots
are anticipated... especially on untreated surfaces. Use extra
caution when out driving or walking tonight into Saturday morning.